iso_date,epoch_date,Year,Hour,Min,DOY,POS_DOY,Lat,Lon,BP,Ts,Ta,has_bp,has_ts,has_ta,BuoyID,Buoy_Type,Buoy_Owner,Logistics,Hemisphere
2015-03-02T19:00:02Z,1425322803,2015,19,0,61.7917,61.785,-54.07556,-88.96361,983.4,7.74,-999.0,yes,yes,no,114950,BD2A3,AOML,STRATUS,South
2015-03-02T19:59:57Z,1425326397,2015,20,0,61.8333,61.785,-54.07556,-88.96361,982.7,7.73,-999.0,yes,yes,no,114950,BD2A3,AOML,STRATUS,South
2015-03-02T21:00:00Z,1425330000,2015,21,0,61.875,61.9287,-54.0725,-88.93361,982.5,7.74,-999.0,yes,yes,no,114950,BD2A3,AOML,STRATUS,South
2015-03-03T01:59:57Z,1425347997,2015,2,0,62.0833,61.9287,-54.0725,-88.93361,982.9,7.76,-999.0,yes,yes,no,114950,BD2A3,AOML,STRATUS,South
2015-03-03T04:00:02Z,1425355203,2015,4,0,62.1667,61.9287,-54.0725,-88.93361,983.2,7.76,-999.0,yes,yes,no,114950,BD2A3,AOML,STRATUS,South
2015-03-03T07:59:57Z,1425369597,2015,8,0,62.3333,61.9287,-54.0725,-88.93361,984.5,7.77,-999.0,yes,yes,no,114950,BD2A3,AOML,STRATUS,South
2015-03-03T09:00:00Z,1425373200,2015,9,0,62.375,61.9287,-54.0725,-88.93361,985.2,7.77,-999.0,yes,yes,no,114950,BD2A3,AOML,STRATUS,South
2015-03-03T12:00:00Z,1425384000,2015,12,0,62.5,61.9287,-54.0725,-88.93361,987.0,7.76,-999.0,yes,yes,no,114950,BD2A3,AOML,STRATUS,South
2015-03-03T13:00:02Z,1425387603,2015,13,0,62.5417,61.9287,-54.0725,-88.93361,987.7,7.77,-999.0,yes,yes,no,114950,BD2A3,AOML,STRATUS,South
2015-03-03T13:59:57Z,1425391197,2015,14,0,62.5833,61.9287,-54.0725,-88.93361,988.4,7.77,-999.0,yes,yes,no,114950,BD2A3,AOML,STRATUS,South
2015-03-03T16:59:57Z,1425401997,2015,17,0,62.7083,61.9287,-54.0725,-88.93361,990.0,7.8,-999.0,yes,yes,no,114950,BD2A3,AOML,STRATUS,South
2015-03-03T19:00:02Z,1425409203,2015,19,0,62.7917,62.9297,-54.08417,-89.08111,990.5,7.84,-999.0,yes,yes,no,114950,BD2A3,AOML,STRATUS,South
2015-03-03T19:59:57Z,1425412797,2015,20,0,62.8333,62.9297,-54.08417,-89.08111,990.5,7.84,-999.0,yes,yes,no,114950,BD2A3,AOML,STRATUS,South
2015-03-03T21:00:00Z,1425416400,2015,21,0,62.875,62.9297,-54.08417,-89.08111,990.4,7.86,-999.0,yes,yes,no,114950,BD2A3,AOML,STRATUS,South
2015-03-03T22:00:02Z,1425420003,2015,22,0,62.9167,62.9297,-54.08417,-89.08111,990.0,7.85,-999.0,yes,yes,no,114950,BD2A3,AOML,STRATUS,South
2015-03-03T22:59:57Z,1425423597,2015,23,0,62.9583,62.9297,-54.08417,-89.08111,990.0,7.85,-999.0,yes,yes,no,114950,BD2A3,AOML,STRATUS,South
2015-03-04T01:00:02Z,1425430803,2015,1,0,63.0417,62.9297,-54.08417,-89.08111,989.7,7.85,-999.0,yes,yes,no,114950,BD2A3,AOML,STRATUS,South
2015-03-04T04:00:02Z,1425441603,2015,4,0,63.1667,62.9297,-54.08417,-89.08111,989.2,7.85,-999.0,yes,yes,no,114950,BD2A3,AOML,STRATUS,South
2015-03-04T10:59:57Z,1425466797,2015,11,0,63.4583,62.9297,-54.08417,-89.08111,987.2,7.83,-999.0,yes,yes,no,114950,BD2A3,AOML,STRATUS,South
2015-03-04T13:00:02Z,1425474003,2015,13,0,63.5417,62.9297,-54.08417,-89.08111,986.2,7.83,-999.0,yes,yes,no,114950,BD2A3,AOML,STRATUS,South
2015-03-04T13:59:57Z,1425477597,2015,14,0,63.5833,62.9297,-54.08417,-89.08111,985.5,7.83,-999.0,yes,yes,no,114950,BD2A3,AOML,STRATUS,South
2015-03-04T19:00:02Z,1425495603,2015,19,0,63.7917,62.9297,-54.08417,-89.08111,982.4,8.0,-999.0,yes,yes,no,114950,BD2A3,AOML,STRATUS,South
2015-03-04T19:59:57Z,1425499197,2015,20,0,63.8333,63.9766,-54.09389,-89.11917,982.0,8.06,-999.0,yes,yes,no,114950,BD2A3,AOML,STRATUS,South
2015-03-04T21:00:00Z,1425502800,2015,21,0,63.875,63.9766,-54.09389,-89.11917,981.7,8.04,-999.0,yes,yes,no,114950,BD2A3,AOML,STRATUS,South
2015-03-04T22:00:02Z,1425506403,2015,22,0,63.9167,63.9766,-54.09389,-89.11917,981.5,8.02,-999.0,yes,yes,no,114950,BD2A3,AOML,STRATUS,South
2015-03-04T22:59:57Z,1425509997,2015,23,0,63.9583,63.9766,-54.09389,-89.11917,981.5,7.99,-999.0,yes,yes,no,114950,BD2A3,AOML,STRATUS,South
2015-03-05T00:00:00Z,1425513600,2015,0,0,64.0,63.9766,-54.09389,-89.11917,981.5,7.95,-999.0,yes,yes,no,114950,BD2A3,AOML,STRATUS,South
2015-03-05T01:00:02Z,1425517203,2015,1,0,64.0417,63.9766,-54.09389,-89.11917,981.5,7.93,-999.0,yes,yes,no,114950,BD2A3,AOML,STRATUS,South
2015-03-05T04:00:02Z,1425528003,2015,4,0,64.1667,63.9766,-54.09389,-89.11917,982.7,7.9,-999.0,yes,yes,no,114950,BD2A3,AOML,STRATUS,South
2015-03-05T10:00:02Z,1425549603,2015,10,0,64.4167,63.9766,-54.09389,-89.11917,985.5,7.88,-999.0,yes,yes,no,114950,BD2A3,AOML,STRATUS,South
2015-03-05T12:00:00Z,1425556800,2015,12,0,64.5,63.9766,-54.09389,-89.11917,986.0,7.88,-999.0,yes,yes,no,114950,BD2A3,AOML,STRATUS,South
2015-03-05T13:00:02Z,1425560403,2015,13,0,64.5417,63.9766,-54.09389,-89.11917,986.5,7.88,-999.0,yes,yes,no,114950,BD2A3,AOML,STRATUS,South
2015-03-05T15:00:00Z,1425567600,2015,15,0,64.625,63.9766,-54.09389,-89.11917,987.2,7.89,-999.0,yes,yes,no,114950,BD2A3,AOML,STRATUS,South
2015-03-05T19:59:57Z,1425585597,2015,20,0,64.8333,64.9711,-54.15222,-89.1575,987.5,7.98,-999.0,yes,yes,no,114950,BD2A3,AOML,STRATUS,South
2015-03-05T21:00:00Z,1425589200,2015,21,0,64.875,64.9711,-54.15222,-89.1575,987.2,8.0,-999.0,yes,yes,no,114950,BD2A3,AOML,STRATUS,South
2015-03-05T22:00:02Z,1425592803,2015,22,0,64.9167,64.9711,-54.15222,-89.1575,987.0,8.02,-999.0,yes,yes,no,114950,BD2A3,AOML,STRATUS,South
2015-03-05T22:59:57Z,1425596397,2015,23,0,64.9583,64.9711,-54.15222,-89.1575,986.5,7.99,-999.0,yes,yes,no,114950,BD2A3,AOML,STRATUS,South
2015-03-06T00:00:00Z,1425600000,2015,0,0,65.0,64.9727,-54.15611,-89.15611,986.0,7.99,-999.0,yes,yes,no,114950,BD2A3,AOML,STRATUS,South
2015-03-06T01:00:02Z,1425603603,2015,1,0,65.0417,65.0421,-54.13917,-89.13306,985.5,7.98,-999.0,yes,yes,no,114950,BD2A3,AOML,STRATUS,South
2015-03-06T01:59:57Z,1425607197,2015,2,0,65.0833,65.0421,-54.13917,-89.13306,985.2,7.97,-999.0,yes,yes,no,114950,BD2A3,AOML,STRATUS,South
2015-03-06T03:00:00Z,1425610800,2015,3,0,65.125,65.1776,-54.12917,-89.15889,984.5,7.97,-999.0,yes,yes,no,114950,BD2A3,AOML,STRATUS,South
2015-03-06T04:00:02Z,1425614403,2015,4,0,65.1667,65.1776,-54.13,-89.16,983.2,7.97,-999.0,yes,yes,no,114950,BD2A3,AOML,STRATUS,South
2015-03-06T04:59:57Z,1425617997,2015,5,0,65.2083,65.1776,-54.13,-89.16,982.0,7.96,-999.0,yes,yes,no,114950,BD2A3,AOML,STRATUS,South
2015-03-06T06:00:00Z,1425621600,2015,6,0,65.25,65.1776,-54.13,-89.16,981.0,7.95,-999.0,yes,yes,no,114950,BD2A3,AOML,STRATUS,South
2015-03-06T13:59:57Z,1425650397,2015,14,0,65.5833,65.1776,-54.13,-89.16,970.2,7.93,-999.0,yes,yes,no,114950,BD2A3,AOML,STRATUS,South
2015-03-06T19:59:57Z,1425671997,2015,20,0,65.8333,65.9629,-54.19583,-89.23083,969.7,8.02,-999.0,yes,yes,no,114950,BD2A3,AOML,STRATUS,South
2015-03-06T22:00:02Z,1425679203,2015,22,0,65.9167,65.1776,-54.13,-89.16,969.5,8.04,-999.0,yes,yes,no,114950,BD2A3,AOML,STRATUS,South
2015-03-06T22:59:57Z,1425682797,2015,23,0,65.9583,65.9629,-54.19583,-89.23083,969.4,8.05,-999.0,yes,yes,no,114950,BD2A3,AOML,STRATUS,South
2015-03-07T01:00:02Z,1425690003,2015,1,0,66.0417,65.9629,-54.19583,-89.23083,969.0,8.02,-999.0,yes,yes,no,114950,BD2A3,AOML,STRATUS,South
2015-03-07T01:59:57Z,1425693597,2015,2,0,66.0833,65.9629,-54.19583,-89.23083,969.0,8.02,-999.0,yes,yes,no,114950,BD2A3,AOML,STRATUS,South
2015-03-07T03:00:00Z,1425697200,2015,3,0,66.125,65.9629,-54.19583,-89.23083,969.0,8.02,-999.0,yes,yes,no,114950,BD2A3,AOML,STRATUS,South
2015-03-07T04:00:02Z,1425700803,2015,4,0,66.1667,65.9629,-54.19583,-89.23083,969.0,8.01,-999.0,yes,yes,no,114950,BD2A3,AOML,STRATUS,South
2015-03-07T07:00:02Z,1425711603,2015,7,0,66.2917,65.9629,-54.19583,-89.23083,969.4,7.99,-999.0,yes,yes,no,114950,BD2A3,AOML,STRATUS,South
2015-03-07T07:59:57Z,1425715197,2015,8,0,66.3333,65.9629,-54.19583,-89.23083,969.2,7.99,-999.0,yes,yes,no,114950,BD2A3,AOML,STRATUS,South
2015-03-07T09:00:00Z,1425718800,2015,9,0,66.375,65.9629,-54.19583,-89.23083,969.4,7.99,-999.0,yes,yes,no,114950,BD2A3,AOML,STRATUS,South
2015-03-07T10:00:02Z,1425722403,2015,10,0,66.4167,65.9629,-54.19583,-89.23083,969.4,7.97,-999.0,yes,yes,no,114950,BD2A3,AOML,STRATUS,South
2015-03-07T10:59:57Z,1425725997,2015,11,0,66.4583,65.9629,-54.19583,-89.23083,969.4,7.97,-999.0,yes,yes,no,114950,BD2A3,AOML,STRATUS,South
2015-03-07T12:00:00Z,1425729600,2015,12,0,66.5,65.9629,-54.19583,-89.23083,969.7,7.96,-999.0,yes,yes,no,114950,BD2A3,AOML,STRATUS,South
2015-03-07T19:59:57Z,1425758397,2015,20,0,66.8333,65.9629,-54.19583,-89.23083,972.7,8.11,-999.0,yes,yes,no,114950,BD2A3,AOML,STRATUS,South
2015-03-07T21:00:00Z,1425762000,2015,21,0,66.875,66.9565,-54.23417,-89.175,972.7,8.09,-999.0,yes,yes,no,114950,BD2A3,AOML,STRATUS,South
2015-03-07T22:00:02Z,1425765603,2015,22,0,66.9167,66.9565,-54.23417,-89.175,973.2,8.05,-999.0,yes,yes,no,114950,BD2A3,AOML,STRATUS,South
2015-03-07T22:59:57Z,1425769197,2015,23,0,66.9583,66.9565,-54.23417,-89.175,974.2,8.05,-999.0,yes,yes,no,114950,BD2A3,AOML,STRATUS,South
2015-03-08T00:00:00Z,1425772800,2015,0,0,67.0,66.9565,-54.23417,-89.175,975.0,8.02,-999.0,yes,yes,no,114950,BD2A3,AOML,STRATUS,South
2015-03-08T01:00:02Z,1425776403,2015,1,0,67.0417,66.9565,-54.23417,-89.175,976.2,8.01,-999.0,yes,yes,no,114950,BD2A3,AOML,STRATUS,South
2015-03-08T03:00:00Z,1425783600,2015,3,0,67.125,67.0157,-54.21861,-89.20417,979.5,7.98,-999.0,yes,yes,no,114950,BD2A3,AOML,STRATUS,South
2015-03-08T04:00:02Z,1425787203,2015,4,0,67.1667,67.0157,-54.21861,-89.20417,981.4,7.94,-999.0,yes,yes,no,114950,BD2A3,AOML,STRATUS,South
2015-03-08T07:00:02Z,1425798003,2015,7,0,67.2917,67.4125,-54.21306,-89.27111,987.2,7.89,-999.0,yes,yes,no,114950,BD2A3,AOML,STRATUS,South
2015-03-08T07:59:57Z,1425801597,2015,8,0,67.3333,67.4125,-54.21306,-89.27111,988.7,7.88,-999.0,yes,yes,no,114950,BD2A3,AOML,STRATUS,South
2015-03-08T09:00:00Z,1425805200,2015,9,0,67.375,67.4125,-54.21306,-89.27111,989.9,7.88,-999.0,yes,yes,no,114950,BD2A3,AOML,STRATUS,South
2015-03-08T10:00:02Z,1425808803,2015,10,0,67.4167,67.4125,-54.21306,-89.27111,990.7,7.88,-999.0,yes,yes,no,114950,BD2A3,AOML,STRATUS,South
2015-03-08T10:59:57Z,1425812397,2015,11,0,67.4583,67.4125,-54.21306,-89.27111,991.7,7.87,-999.0,yes,yes,no,114950,BD2A3,AOML,STRATUS,South
2015-03-08T12:00:00Z,1425816000,2015,12,0,67.5,67.5524,-54.19611,-89.24417,992.5,7.87,-999.0,yes,yes,no,114950,BD2A3,AOML,STRATUS,South
2015-03-08T13:00:02Z,1425819603,2015,13,0,67.5417,67.5524,-54.19611,-89.24417,993.4,7.86,-999.0,yes,yes,no,114950,BD2A3,AOML,STRATUS,South
2015-03-08T13:59:57Z,1425823197,2015,14,0,67.5833,67.5524,-54.19722,-89.24444,994.4,7.87,-999.0,yes,yes,no,114950,BD2A3,AOML,STRATUS,South
2015-03-08T18:00:00Z,1425837600,2015,18,0,67.75,67.5524,-54.19722,-89.24444,996.0,7.9,-999.0,yes,yes,no,114950,BD2A3,AOML,STRATUS,South
2015-03-08T21:00:00Z,1425848400,2015,21,0,67.875,67.9607,-54.22444,-89.31167,995.7,7.94,-999.0,yes,yes,no,114950,BD2A3,AOML,STRATUS,South
2015-03-08T22:00:02Z,1425852003,2015,22,0,67.9167,67.9607,-54.22444,-89.31167,995.4,7.93,-999.0,yes,yes,no,114950,BD2A3,AOML,STRATUS,South
2015-03-08T22:59:57Z,1425855597,2015,23,0,67.9583,67.9607,-54.22444,-89.31167,995.0,7.91,-999.0,yes,yes,no,114950,BD2A3,AOML,STRATUS,South
2015-03-09T00:00:00Z,1425859200,2015,0,0,68.0,67.9607,-54.22444,-89.31167,994.7,7.91,-999.0,yes,yes,no,114950,BD2A3,AOML,STRATUS,South
2015-03-09T01:00:02Z,1425862803,2015,1,0,68.0417,67.9607,-54.22444,-89.31167,994.2,7.89,-999.0,yes,yes,no,114950,BD2A3,AOML,STRATUS,South
2015-03-09T03:00:00Z,1425870000,2015,3,0,68.125,67.9607,-54.22444,-89.31167,992.7,7.88,-999.0,yes,yes,no,114950,BD2A3,AOML,STRATUS,South
2015-03-09T04:00:02Z,1425873603,2015,4,0,68.1667,67.9607,-54.22444,-89.31167,991.9,7.87,-999.0,yes,yes,no,114950,BD2A3,AOML,STRATUS,South
2015-03-09T07:59:57Z,1425887997,2015,8,0,68.3333,68.4679,-54.23889,-89.34722,986.2,7.84,-999.0,yes,yes,no,114950,BD2A3,AOML,STRATUS,South
2015-03-09T09:00:00Z,1425891600,2015,9,0,68.375,68.4679,-54.23889,-89.34722,984.4,7.86,-999.0,yes,yes,no,114950,BD2A3,AOML,STRATUS,South
2015-03-09T10:00:02Z,1425895203,2015,10,0,68.4167,68.4679,-54.23889,-89.34722,982.5,7.85,-999.0,yes,yes,no,114950,BD2A3,AOML,STRATUS,South
2015-03-09T10:59:57Z,1425898797,2015,11,0,68.4583,68.4679,-54.23889,-89.34722,980.9,7.87,-999.0,yes,yes,no,114950,BD2A3,AOML,STRATUS,South
2015-03-09T12:00:00Z,1425902400,2015,12,0,68.5,68.4679,-54.23889,-89.34722,979.5,7.86,-999.0,yes,yes,no,114950,BD2A3,AOML,STRATUS,South
2015-03-09T13:00:02Z,1425906003,2015,13,0,68.5417,68.5367,-54.24111,-89.34083,978.4,7.85,-999.0,yes,yes,no,114950,BD2A3,AOML,STRATUS,South
2015-03-09T13:59:57Z,1425909597,2015,14,0,68.5833,68.6034,-54.25528,-89.33056,977.2,7.86,-999.0,yes,yes,no,114950,BD2A3,AOML,STRATUS,South
2015-03-09T16:59:57Z,1425920397,2015,17,0,68.7083,68.6034,-54.25528,-89.33056,976.7,7.87,-999.0,yes,yes,no,114950,BD2A3,AOML,STRATUS,South
2015-03-10T07:00:02Z,1425970803,2015,7,0,69.2917,68.6034,-54.25528,-89.33056,986.5,7.85,-999.0,yes,yes,no,114950,BD2A3,AOML,STRATUS,South
2015-03-10T07:59:57Z,1425974397,2015,8,0,69.3333,68.6034,-54.25528,-89.33056,986.0,7.85,-999.0,yes,yes,no,114950,BD2A3,AOML,STRATUS,South
2015-03-10T09:00:00Z,1425978000,2015,9,0,69.375,69.4116,-54.28167,-89.35111,985.5,7.85,-999.0,yes,yes,no,114950,BD2A3,AOML,STRATUS,South
2015-03-10T10:00:02Z,1425981603,2015,10,0,69.4167,69.4116,-54.28167,-89.35111,984.5,7.86,-999.0,yes,yes,no,114950,BD2A3,AOML,STRATUS,South
2015-03-10T10:59:57Z,1425985197,2015,11,0,69.4583,69.4116,-54.28167,-89.35111,983.7,7.86,-999.0,yes,yes,no,114950,BD2A3,AOML,STRATUS,South
2015-03-10T12:00:00Z,1425988800,2015,12,0,69.5,69.5772,-54.27861,-89.41556,983.7,7.86,-999.0,yes,yes,no,114950,BD2A3,AOML,STRATUS,South
2015-03-10T13:00:02Z,1425992403,2015,13,0,69.5417,69.5772,-54.27861,-89.41556,983.9,7.86,-999.0,yes,yes,no,114950,BD2A3,AOML,STRATUS,South
2015-03-10T19:00:02Z,1426014003,2015,19,0,69.7917,69.9569,-54.3,-89.39722,982.0,7.87,-999.0,yes,yes,no,114950,BD2A3,AOML,STRATUS,South
2015-03-10T22:00:02Z,1426024803,2015,22,0,69.9167,69.9569,-54.3,-89.39722,980.0,7.88,-999.0,yes,yes,no,114950,BD2A3,AOML,STRATUS,South
2015-03-10T22:59:57Z,1426028397,2015,23,0,69.9583,69.9569,-54.3,-89.39722,979.4,7.88,-999.0,yes,yes,no,114950,BD2A3,AOML,STRATUS,South
2015-03-11T00:00:00Z,1426032000,2015,0,0,70.0,69.9569,-54.3,-89.39722,978.7,7.88,-999.0,yes,yes,no,114950,BD2A3,AOML,STRATUS,South
2015-03-11T06:00:00Z,1426053600,2015,6,0,70.25,70.4033,-54.32083,-89.4175,975.4,7.86,-999.0,yes,yes,no,114950,BD2A3,AOML,STRATUS,South
2015-03-11T07:00:02Z,1426057203,2015,7,0,70.2917,70.4033,-54.32083,-89.4175,974.7,7.85,-999.0,yes,yes,no,114950,BD2A3,AOML,STRATUS,South
2015-03-11T07:59:57Z,1426060797,2015,8,0,70.3333,70.4033,-54.32083,-89.4175,974.2,7.85,-999.0,yes,yes,no,114950,BD2A3,AOML,STRATUS,South
2015-03-11T09:00:00Z,1426064400,2015,9,0,70.375,70.4033,-54.32083,-89.4175,973.7,7.85,-999.0,yes,yes,no,114950,BD2A3,AOML,STRATUS,South
2015-03-11T10:00:02Z,1426068003,2015,10,0,70.4167,70.4033,-54.32083,-89.4175,973.2,7.85,-999.0,yes,yes,no,114950,BD2A3,AOML,STRATUS,South
2015-03-11T10:59:57Z,1426071597,2015,11,0,70.4583,70.4776,-54.32833,-89.3875,973.4,7.84,-999.0,yes,yes,no,114950,BD2A3,AOML,STRATUS,South
2015-03-11T12:00:00Z,1426075200,2015,12,0,70.5,70.4776,-54.32833,-89.3875,973.4,7.84,-999.0,yes,yes,no,114950,BD2A3,AOML,STRATUS,South
2015-03-11T13:00:02Z,1426078803,2015,13,0,70.5417,70.557,-54.32472,-89.37472,973.7,7.84,-999.0,yes,yes,no,114950,BD2A3,AOML,STRATUS,South
2015-03-11T13:59:57Z,1426082397,2015,14,0,70.5833,70.5764,-54.32389,-89.38694,973.9,7.85,-999.0,yes,yes,no,114950,BD2A3,AOML,STRATUS,South
2015-03-11T15:00:00Z,1426086000,2015,15,0,70.625,70.6249,-54.32361,-89.38306,974.0,7.85,-999.0,yes,yes,no,114950,BD2A3,AOML,STRATUS,South
2015-03-11T21:00:00Z,1426107600,2015,21,0,70.875,70.6249,-54.32361,-89.38306,974.0,7.88,-999.0,yes,yes,no,114950,BD2A3,AOML,STRATUS,South
2015-03-11T22:00:02Z,1426111203,2015,22,0,70.9167,70.6249,-54.32361,-89.38306,974.2,7.88,-999.0,yes,yes,no,114950,BD2A3,AOML,STRATUS,South
2015-03-11T22:59:57Z,1426114797,2015,23,0,70.9583,70.6249,-54.32361,-89.38306,974.7,7.86,-999.0,yes,yes,no,114950,BD2A3,AOML,STRATUS,South
2015-03-12T00:00:00Z,1426118400,2015,0,0,71.0,71.1527,-54.33972,-89.37583,975.2,7.85,-999.0,yes,yes,no,114950,BD2A3,AOML,STRATUS,South
2015-03-12T01:00:02Z,1426122003,2015,1,0,71.0417,71.1527,-54.34083,-89.37639,975.7,7.84,-999.0,yes,yes,no,114950,BD2A3,AOML,STRATUS,South
2015-03-12T01:59:57Z,1426125597,2015,2,0,71.0833,71.1527,-54.33972,-89.37583,977.0,7.84,-999.0,yes,yes,no,114950,BD2A3,AOML,STRATUS,South
2015-03-12T03:00:00Z,1426129200,2015,3,0,71.125,71.1527,-54.34083,-89.37639,977.9,7.82,-999.0,yes,yes,no,114950,BD2A3,AOML,STRATUS,South
2015-03-12T04:00:02Z,1426132803,2015,4,0,71.1667,71.1527,-54.34083,-89.37639,978.7,7.82,-999.0,yes,yes,no,114950,BD2A3,AOML,STRATUS,South
2015-03-12T04:59:57Z,1426136397,2015,5,0,71.2083,71.1527,-54.34083,-89.37639,979.4,7.81,-999.0,yes,yes,no,114950,BD2A3,AOML,STRATUS,South
2015-03-12T06:00:00Z,1426140000,2015,6,0,71.25,71.1527,-54.34083,-89.37639,980.2,7.81,-999.0,yes,yes,no,114950,BD2A3,AOML,STRATUS,South
2015-03-12T07:00:02Z,1426143603,2015,7,0,71.2917,71.2694,-54.33694,-89.38639,980.9,7.79,-999.0,yes,yes,no,114950,BD2A3,AOML,STRATUS,South
2015-03-12T07:59:57Z,1426147197,2015,8,0,71.3333,71.3965,-54.33611,-89.42722,981.5,7.79,-999.0,yes,yes,no,114950,BD2A3,AOML,STRATUS,South
2015-03-12T09:00:00Z,1426150800,2015,9,0,71.375,71.3965,-54.33611,-89.42722,982.2,7.78,-999.0,yes,yes,no,114950,BD2A3,AOML,STRATUS,South
2015-03-12T10:00:02Z,1426154403,2015,10,0,71.4167,71.3965,-54.33611,-89.42722,982.0,7.78,-999.0,yes,yes,no,114950,BD2A3,AOML,STRATUS,South
2015-03-12T10:59:57Z,1426157997,2015,11,0,71.4583,71.4651,-54.35306,-89.41306,982.5,7.78,-999.0,yes,yes,no,114950,BD2A3,AOML,STRATUS,South
2015-03-12T12:00:00Z,1426161600,2015,12,0,71.5,71.4651,-54.35306,-89.41306,983.5,7.71,-999.0,yes,yes,no,114950,BD2A3,AOML,STRATUS,South
2015-03-12T13:59:57Z,1426168797,2015,14,0,71.5833,71.4698,-54.34778,-89.40806,985.2,7.76,-999.0,yes,yes,no,114950,BD2A3,AOML,STRATUS,South
2015-03-12T19:00:02Z,1426186803,2015,19,0,71.7917,71.4698,-54.34778,-89.40806,991.2,7.75,-999.0,yes,yes,no,114950,BD2A3,AOML,STRATUS,South
2015-03-12T19:59:57Z,1426190397,2015,20,0,71.8333,71.9934,-54.33889,-89.43083,992.7,7.75,-999.0,yes,yes,no,114950,BD2A3,AOML,STRATUS,South
2015-03-12T21:00:00Z,1426194000,2015,21,0,71.875,71.9934,-54.33889,-89.43083,993.9,7.76,-999.0,yes,yes,no,114950,BD2A3,AOML,STRATUS,South
2015-03-12T22:00:02Z,1426197603,2015,22,0,71.9167,71.9934,-54.33889,-89.43083,994.7,7.74,-999.0,yes,yes,no,114950,BD2A3,AOML,STRATUS,South
2015-03-12T22:59:57Z,1426201197,2015,23,0,71.9583,71.9934,-54.33889,-89.43083,995.9,7.74,-999.0,yes,yes,no,114950,BD2A3,AOML,STRATUS,South
2015-03-13T00:00:00Z,1426204800,2015,0,0,72.0,71.9934,-54.33889,-89.43083,996.5,7.73,-999.0,yes,yes,no,114950,BD2A3,AOML,STRATUS,South
2015-03-13T01:00:02Z,1426208403,2015,1,0,72.0417,72.0102,-54.33778,-89.43167,997.2,7.72,-999.0,yes,yes,no,114950,BD2A3,AOML,STRATUS,South
2015-03-13T01:59:57Z,1426211997,2015,2,0,72.0833,72.0102,-54.33778,-89.43167,997.7,7.73,-999.0,yes,yes,no,114950,BD2A3,AOML,STRATUS,South
2015-03-13T03:00:00Z,1426215600,2015,3,0,72.125,72.0102,-54.33778,-89.43167,998.0,7.71,-999.0,yes,yes,no,114950,BD2A3,AOML,STRATUS,South
2015-03-13T04:00:02Z,1426219203,2015,4,0,72.1667,72.2625,-54.35472,-89.46556,997.7,7.71,-999.0,yes,yes,no,114950,BD2A3,AOML,STRATUS,South
2015-03-13T04:59:57Z,1426222797,2015,5,0,72.2083,72.2625,-54.35472,-89.46556,997.2,7.71,-999.0,yes,yes,no,114950,BD2A3,AOML,STRATUS,South
2015-03-13T06:00:00Z,1426226400,2015,6,0,72.25,72.2625,-54.35472,-89.46556,997.0,7.71,-999.0,yes,yes,no,114950,BD2A3,AOML,STRATUS,South
2015-03-13T07:00:02Z,1426230003,2015,7,0,72.2917,72.2625,-54.35472,-89.46556,996.2,7.7,-999.0,yes,yes,no,114950,BD2A3,AOML,STRATUS,South
2015-03-13T07:59:57Z,1426233597,2015,8,0,72.3333,72.2625,-54.35472,-89.46556,994.9,7.71,-999.0,yes,yes,no,114950,BD2A3,AOML,STRATUS,South
2015-03-13T09:00:00Z,1426237200,2015,9,0,72.375,72.3874,-54.36417,-89.43556,993.0,7.7,-999.0,yes,yes,no,114950,BD2A3,AOML,STRATUS,South
2015-03-13T10:00:02Z,1426240803,2015,10,0,72.4167,72.3874,-54.36417,-89.43556,991.5,7.71,-999.0,yes,yes,no,114950,BD2A3,AOML,STRATUS,South
2015-03-13T10:59:57Z,1426244397,2015,11,0,72.4583,72.5122,-54.36444,-89.43028,991.0,7.71,-999.0,yes,yes,no,114950,BD2A3,AOML,STRATUS,South
2015-03-13T12:00:00Z,1426248000,2015,12,0,72.5,72.5122,-54.36444,-89.43028,990.7,7.71,-999.0,yes,yes,no,114950,BD2A3,AOML,STRATUS,South
2015-03-13T13:00:02Z,1426251603,2015,13,0,72.5417,72.5122,-54.36444,-89.43028,990.9,7.71,-999.0,yes,yes,no,114950,BD2A3,AOML,STRATUS,South
2015-03-13T13:59:57Z,1426255197,2015,14,0,72.5833,72.5122,-54.36444,-89.43028,990.9,7.71,-999.0,yes,yes,no,114950,BD2A3,AOML,STRATUS,South
2015-03-13T16:00:02Z,1426262403,2015,16,0,72.6667,72.5821,-54.36611,-89.42944,991.4,7.72,-999.0,yes,yes,no,114950,BD2A3,AOML,STRATUS,South
2015-03-13T18:00:00Z,1426269600,2015,18,0,72.75,72.5821,-54.36611,-89.42944,990.9,7.73,-999.0,yes,yes,no,114950,BD2A3,AOML,STRATUS,South
2015-03-13T19:59:57Z,1426276797,2015,20,0,72.8333,72.9884,-54.39194,-89.39972,989.5,7.74,-999.0,yes,yes,no,114950,BD2A3,AOML,STRATUS,South
2015-03-13T21:00:00Z,1426280400,2015,21,0,72.875,72.9884,-54.39194,-89.39972,988.5,7.74,-999.0,yes,yes,no,114950,BD2A3,AOML,STRATUS,South
2015-03-13T22:00:02Z,1426284003,2015,22,0,72.9167,72.9884,-54.39194,-89.39972,987.2,7.74,-999.0,yes,yes,no,114950,BD2A3,AOML,STRATUS,South
2015-03-13T22:59:57Z,1426287597,2015,23,0,72.9583,72.9884,-54.39194,-89.39972,985.4,7.74,-999.0,yes,yes,no,114950,BD2A3,AOML,STRATUS,South
2015-03-14T00:00:00Z,1426291200,2015,0,0,73.0,72.9884,-54.39194,-89.39972,983.9,7.73,-999.0,yes,yes,no,114950,BD2A3,AOML,STRATUS,South
2015-03-14T01:00:02Z,1426294803,2015,1,0,73.0417,73.0433,-54.39139,-89.39583,984.2,7.73,-999.0,yes,yes,no,114950,BD2A3,AOML,STRATUS,South
2015-03-14T01:59:57Z,1426298397,2015,2,0,73.0833,73.0433,-54.39139,-89.39583,985.2,7.72,-999.0,yes,yes,no,114950,BD2A3,AOML,STRATUS,South
2015-03-14T06:00:00Z,1426312800,2015,6,0,73.25,73.0433,-54.39139,-89.39583,988.0,7.7,-999.0,yes,yes,no,114950,BD2A3,AOML,STRATUS,South
2015-03-14T07:00:02Z,1426316403,2015,7,0,73.2917,73.449,-54.38167,-89.39333,988.7,7.69,-999.0,yes,yes,no,114950,BD2A3,AOML,STRATUS,South
2015-03-14T07:59:57Z,1426319997,2015,8,0,73.3333,73.449,-54.38167,-89.39333,989.5,7.69,-999.0,yes,yes,no,114950,BD2A3,AOML,STRATUS,South
2015-03-14T09:00:00Z,1426323600,2015,9,0,73.375,73.0433,-54.39139,-89.39583,990.2,7.68,-999.0,yes,yes,no,114950,BD2A3,AOML,STRATUS,South
2015-03-14T12:00:00Z,1426334400,2015,12,0,73.5,73.449,-54.38167,-89.39333,991.2,7.67,-999.0,yes,yes,no,114950,BD2A3,AOML,STRATUS,South
2015-03-14T13:59:57Z,1426341597,2015,14,0,73.5833,73.449,-54.38167,-89.39333,991.5,7.67,-999.0,yes,yes,no,114950,BD2A3,AOML,STRATUS,South
2015-03-14T15:00:00Z,1426345200,2015,15,0,73.625,73.449,-54.38167,-89.39333,991.2,7.68,-999.0,yes,yes,no,114950,BD2A3,AOML,STRATUS,South
2015-03-14T22:00:02Z,1426370403,2015,22,0,73.9167,73.449,-54.38167,-89.39333,985.2,7.69,-999.0,yes,yes,no,114950,BD2A3,AOML,STRATUS,South
2015-03-14T22:59:57Z,1426373997,2015,23,0,73.9583,73.449,-54.38167,-89.39333,983.7,7.68,-999.0,yes,yes,no,114950,BD2A3,AOML,STRATUS,South
2015-03-15T00:00:00Z,1426377600,2015,0,0,74.0,73.449,-54.38167,-89.39333,982.0,7.69,-999.0,yes,yes,no,114950,BD2A3,AOML,STRATUS,South
2015-03-15T01:00:02Z,1426381203,2015,1,0,74.0417,73.449,-54.38167,-89.39333,980.5,7.68,-999.0,yes,yes,no,114950,BD2A3,AOML,STRATUS,South
2015-03-15T01:59:57Z,1426384797,2015,2,0,74.0833,73.449,-54.38167,-89.39333,978.9,7.68,-999.0,yes,yes,no,114950,BD2A3,AOML,STRATUS,South
2015-03-15T05:45:01Z,1426398301,2015,5,45,74.2396,73.449,-54.38167,-89.39333,972.2,7.68,-999.0,yes,yes,no,114950,BD2A3,AOML,STRATUS,South
2015-03-15T06:00:00Z,1426399200,2015,6,0,74.25,73.449,-54.38167,-89.39333,972.2,7.68,-999.0,yes,yes,no,114950,BD2A3,AOML,STRATUS,South
2015-03-15T07:00:02Z,1426402803,2015,7,0,74.2917,74.4408,-54.48444,-89.33611,970.9,7.68,-999.0,yes,yes,no,114950,BD2A3,AOML,STRATUS,South
2015-03-15T07:59:57Z,1426406397,2015,8,0,74.3333,74.4408,-54.48444,-89.33611,970.0,7.67,-999.0,yes,yes,no,114950,BD2A3,AOML,STRATUS,South